Voltar ao catálogo

ESCAPADE BLUE

unknownCiênciaHCO
NORAD 66451·PAYLOAD·🇺🇸 United States

Lançado Nov 13, 2025 de Cape Canaveral Space Force Station

Loading…

TLE

ObsoletoSource: Space-Track

Época: Nov 13, 2025, 21:21 UTC

1 66451U 25260A   25317.89009259  .00000000  00000-0  00000+0 0  9996
2 66451  29.5791 179.7445 9967950 180.3280   0.0007  0.00296241    13

Acompanhe ESCAPADE BLUE em tempo real com AllMySat

Download on the App Store